Regional Weather Roundup
Issued by NWS

Home | Current Version | Previous Version | Graphics & Text | Print | Product List | Glossary On
Versions: 1 2 3 4 5 6 7 8 9 10 11 12 13 14 15 16 17 18 19 20 21 22 23 24 25 26 27 28 29 30 31 32 33 34 35 36 37 38 39 40 41 42 43 44 45 46 47 48 49 50
000
ASUS43 KLSX 310807
RWRMO

WEATHER SUMMARY FOR MISSOURI
NATIONAL WEATHER SERVICE SPRINGFIELD MO
300 AM CDT FRI OCT 31 2014

NOTE: "FAIR" INDICATES FEW OR NO CLOUDS BELOW 12,000 FEET WITH NO
       SIGNIFICANT WEATHER AND/OR OBSTRUCTIONS TO VISIBILITY.
       CURRENT SKY AND/OR WEATHER CONDITIONS ARE NOT AVAILABLE FOR
       CHILLICOTHE AND FARMINGTON.

MOZ001>031-035>038-043-044-053-054-310900-
...NORTHERN AND WESTERN MISSOURI...

CITY           SKY/WX    TMP DP  RH WIND       PRES   REMARKS
KANSAS CTY INT CLOUDY    48  39  71 N24G35    30.28R
KANSAS C DTWN  CLOUDY    51  39  63 N22G31    30.26R
LEE`S SUMMIT   MOCLDY    49  38  65 N22G29    30.25R
ST JOSEPH      CLOUDY    46  35  65 N21G30    30.34R
CHILLICOTHE      N/A     49  36  61 N14G26    30.26R
KIRKSVILLE     CLOUDY    49  39  68 N18G24    30.21R

$$
MOZ066>068-077>081-088>096-101>105-310900-
...SOUTHWEST MISSOURI...

CITY           SKY/WX    TMP DP  RH WIND       PRES   REMARKS
SPRINGFIELD    CLEAR     49  40  71 N12       30.14R
JOPLIN         CLEAR     49  41  74 N12       30.21R

$$
MOZ032>034-039>042-045>050-055>058-069>072-310900-
...CENTRAL MISSOURI...

CITY           SKY/WX    TMP DP  RH WIND       PRES   REMARKS
COLUMBIA       CLOUDY    47  44  90 N12       30.15R
JEFFERSON CITY CLOUDY    45  44  97 W5        30.15R
ROLLA          MOCLDY    44  43  96 N7        30.08R FOG
SEDALIA        CLOUDY    51  40  65 N18       30.19R
WHITEMAN AFB   CLOUDY    50  39  67 N22G28    30.19R
OSAGE BEACH    CLEAR     48  39  71 NW7       30.14R

$$
MOZ051-052-059>065-310900-
...EAST CENTRAL MISSOURI...

CITY           SKY/WX    TMP DP  RH WIND       PRES   REMARKS
ST LOUIS INTL  PTCLDY    47  44  90 NW8       30.08R
SPIRIT OF STL  PTCLDY    45  43  93 NW6       30.08R
ST CHARLES     PTCLDY    46  44  93 N6        30.09R

$$
MOZ072>076-082>087-097>100-106>115-310900-
...SOUTH CENTRAL AND SOUTHEAST MISSOURI...

CITY           SKY/WX    TMP DP  RH WIND       PRES   REMARKS
CAPE GIRARDEAU CLOUDY    52  48  86 CALM      30.02S
FARMINGTON     CLOUDY    45  43  93 SW5       30.06S
POPLAR BLUFF   MOCLDY    50  45  83 N6        30.01S
WEST PLAINS    CLEAR     50  41  71 N8        30.07R

$$



USA.gov is the U.S. government's official web portal to all federal, state and local government web resources and services.